Air Resources Laboratory banner image
Air Resources Laboratory web site National Oceanic and Atmospheric Administration (NOAA)

mi roundup


Office: DTX

ASUS43 KDTX 151301
RWRMI
MICHIGAN HOURLY REGIONAL WEATHER ROUNDUP
NATIONAL WEATHER SERVICE DETROIT/PONTIAC MI
800 AM EST THU NOV 15 2018

NOTE: "FAIR" INDICATES FEW OR NO CLOUDS BELOW 12,000 FEET WITH NO
SIGNIFICANT WEATHER AND/OR OBSTRUCTION TO VISIBILITY.

MIZ047>049-052>055-059>063-066>070-074>076-081>083-151400-
SOUTHEAST LOWER MICHIGAN

CITY           SKY/WX    TMP DP  RH WIND       PRES   REMARKS
ADRIAN         MIX PCPN  31  25  78 E8        30.19F WCI  23
ALMA           FAIR      26  20  80 NE8       30.23F WCI  17
ANN ARBOR      CLOUDY    32  25  75 E7        30.20F WCI  26
BAD AXE        CLOUDY    29  25  85 CALM      30.26F
CARO           FAIR      26  23  89 NE3       30.24F
DETROIT CITY   FAIR      34  25  69 E7        30.22F WCI  28
DETROIT        CLOUDY    35  23  61 E7        30.21F WCI  29
FLINT          CLOUDY    26  21  81 E9        30.22F WCI  17
GROSSE ILE     FLURRIES  33  27  76 CALM      30.21F
HILLSDALE      FLURRIES  32  27  80 E8        30.14F WCI  25
HOWELL         CLOUDY    29  24  81 E6        30.19F WCI  23

CITY           SKY/WX    TMP DP  RH WIND       PRES   REMARKS
JACKSON        CLOUDY    32  25  75 E13G18    30.18S WCI  22
LAMBERTVILLE   FLURRIES  34  25  68 E8        30.19F WCI  27
LANSING        CLOUDY    26  21  81 E7        30.20F WCI  18
LAPEER         FAIR      29  24  82 E5        30.23F WCI  24
MASON          CLOUDY    30  24  78 E3        30.19F
MONROE         MIX PCPN  34  30  83 E10G16    30.20F WCI  26
MT. CLEMENS    CLOUDY    30  28  92 NE7       30.22F WCI  23
PONTIAC        CLOUDY    29  23  78 E7        30.19F WCI  22
PORT HOPE        N/A     34  28  79 SE14      30.27F WCI  25
PORT HURON     FAIR      28  25  86 E7        30.26F WCI  21
TRI CITIES     FAIR      26  20  77 E7        30.25F WCI  18
MIDLAND        MOCLDY    28  21  75 E5        30.25F WCI  23
TROY           CLOUDY    30  21  68 NE8       30.24F WCI  23
SAGINAW HB     FAIR      27  21  80 E6        30.24F WCI  20
$$
MIZ043>046-050>051-056>058-064>065-071>073-077>080-151400-
SOUTHWEST LOWER MICHIGAN

CITY           SKY/WX    TMP DP  RH WIND       PRES   REMARKS
BATTLE CREEK   CLOUDY    29  22  75 E6        30.18R WCI  23
BENTON HARBOR  CLOUDY    31  22  69 E6        30.18S WCI  25
BIG RAPIDS     FAIR      19  16  91 CALM      30.20F
COLDWATER      LGT SNOW  31  23  72 E9        30.16S WCI  23
FREMONT        FAIR      24  19  82 E7        30.20F WCI  16
HOLLAND        CLOUDY    28  20  71 E8        30.20F WCI  20
GRAND RAPIDS   MOCLDY    27  19  72 E10       30.19F WCI  17
IONIA          MOCLDY    26  19  75 NE9       30.19F WCI  17
KALAMAZOO      CLOUDY    29  22  75 E3        30.18S
LUDINGTON      FAIR      19  15  83 E3        30.21F
MARSHALL       CLOUDY    33  26  75 E10       30.17S WCI  24
MOUNT PLEASANT FAIR      24  17  77 CALM      30.23F
SOUTH HAVEN    CLOUDY    30  22  73 E5        30.18F WCI  25
$$
MIZ016>042-151400-
NORTHERN LOWER MICHIGAN

CITY           SKY/WX    TMP DP  RH WIND       PRES   REMARKS
ALPENA         FAIR      17  14  88 CALM      30.28F
BEAVER ISLAND  FAIR      29  19  66 S5        30.21F WCI  24
BELLAIRE       FAIR      12   9  87 CALM      30.24F
CADILLAC       FAIR      11   8  89 CALM      30.19F
CHARLEVOIX     FAIR      21  14  74 CALM      30.25F
FRANKFORT      FAIR      23  16  73 SE5       30.21F WCI  17
GAYLORD        FAIR      19  15  84 S9        30.20F WCI   8
GRAYLING       FAIR       4   2  89 CALM      30.22F
HARBOR SPRINGS FAIR      14  10  87 E3        30.23F
HOUGHTON LAKE  FAIR      17  12  80 E5        30.23F WCI  10
MANISTEE       FAIR      14  12  92 E7        30.21F WCI   4
OSCODA         CLOUDY    22  19  91 CALM      30.27F
PELLSTON       FAIR       4   0  83 CALM      30.24F
ROGERS CITY    FAIR      22  17  78 S9        30.27F WCI  12
TRAVERSE CITY  FAIR      23  15  71 VRB3      30.22F
$$
MIZ007>008-015-151400-
EASTERN UPPER MICHIGAN

CITY           SKY/WX    TMP DP  RH WIND       PRES   REMARKS
KINROSS        FAIR      21  17  84 S10       30.23F WCI  10
MACKINAC ISLAN FAIR      25  13  60 S8        30.23F WCI  16
NEWBERRY       CLOUDY    30  27  88 SE9       30.16F WCI  21
MUNISING         N/A     27  22  81 S9G18     30.10F WCI  18
$$
MIZ004>006-011>014-085-151400-
CENTRAL UPPER MICHIGAN

CITY           SKY/WX    TMP DP  RH WIND       PRES   REMARKS
MANISTIQUE     CLOUDY    34  29  83 S15G24    30.15F WCI  24
ESCANABA       FAIR      25  21  85 SW7       30.16F WCI  17
MENOMINEE      CLOUDY    24  22  91 SW9       30.17F WCI  14
SAWYER-GWINN   CLEAR     19  14  79 S17       30.06F WCI   4
$$
MIZ001>003-009>011-084-151400-
WESTERN UPPER MICHIGAN

CITY           SKY/WX    TMP DP  RH WIND       PRES   REMARKS
IRON MOUNTAIN  FAIR      20  15  81 S10       30.08F WCI   9
HOUGHTON       FAIR      28  15  58 S14       29.94F WCI  17
COPPER HARBOR    N/A     34  17  50 SW16G33   29.94F WCI  24
IRONWOOD       FAIR      27  16  63 S10G22    29.93F WCI  17
$$

ABBREVIATIONS USED IN REMARKS
   TC - TEMPERATURE IN CELSIUS
  WCI - WIND CHILL INDEX
   HX - HEAT INDEX
  VSB - VISIBILITY